Theta_e
325 322 321 322 325 324 329 328 329 352 351 344 346 342 340 341 342 344 349 348 349 346 348 348 347 349 348 348 348 347 347 346
325 324 321 320 324 329 325 336 335 356 355 352 349 339 335 334 337 336 336 338 343 343 345 348 347 348 349 348 348 348 348 348
325 324 322 325 327 328 325 327 332 351 352 350 343 335 332 330 331 330 333 334 333 337 342 346 347 347 349 349 348 348 350 350
328 324 324 327 328 326 331 332 339 343 354 340 336 333 329 327 326 327 328 329 330 329 334 341 342 345 347 346 346 347 347 349
323 323 321 319 319 318 321 324 337 336 346 334 334 332 327 325 324 325 326 325 325 327 328 331 336 340 345 344 342 343 342 346
322 327 323 320 319 319 318 320 337 340 341 334 331 328 325 323 322 323 323 323 324 325 325 327 329 333 340 343 344 344 342 342
321 320 321 320 320 321 320 322 335 340 339 332 328 326 323 322 323 322 321 321 322 324 324 323 326 328 331 338 341 340 341 342
321 325 322 320 320 326 333 339 340 337 335 327 324 323 322 321 322 323 322 321 322 322 323 323 322 324 327 330 333 336 339 341
322 323 323 321 320 321 333 338 338 340 333 326 325 325 324 321 321 321 321 321 321 321 321 322 323 323 321 320 320 326 330 334
320 320 324 321 319 319 329 333 331 329 328 326 325 323 320 320 319 319 318 319 319 320 320 321 322 324 325 325 326 325 326 325
320 320 320 322 319 319 320 329 331 329 327 326 322 320 318 317 316 315 314 315 317 317 316 317 319 322 324 322 321 321 321 322
319 325 323 320 318 318 320 327 326 326 324 321 320 321 319 315 315 314 314 315 314 315 315 315 316 318 317 315 315 315 316 316
320 322 324 321 318 317 322 322 321 323 321 320 318 316 313 314 313 313 314 314 314 314 314 314 314 314 313 313 313 313 313 313
316 318 320 320 320 320 318 316 317 318 316 315 315 315 314 312 311 312 313 313 313 313 313 312 312 312 311 311 310 310 310 310
318 318 317 318 320 317 315 315 316 317 316 315 314 313 312 311 310 310 311 311 312 312 312 312 310 310 309 308 308 308 307 306
316 321 319 318 318 316 315 315 313 313 312 312 312 311 311 308 310 310 310 310 310 310 310 309 309 308 307 306 306 305 305 305
314 315 316 319 317 314 313 314 313 311 311 312 310 310 309 309 309 309 310 309 310 310 309 308 307 307 306 305 305 303 303 303
317 316 314 314 316 314 312 313 312 311 311 311 310 310 310 309 309 310 309 310 309 308 308 307 307 306 305 305 304 302 302 303
316 315 316 316 318 318 313 310 311 309 311 310 311 311 310 309 310 310 310 309 309 308 308 307 305 304 304 304 303 302 303 303
Wind_Speed
4 5 8 3 3 7 2 1 2 5 4 7 11 12 13 12 11 8 8 7 9 11 11 16 21 27 35 35 33 29 26 24
7 1 2 7 4 2 3 2 3 3 3 2 2 5 8 10 9 8 10 11 8 11 13 10 15 15 18 28 35 32 28 26
3 1 8 4 2 5 4 4 5 5 1 4 6 5 6 5 6 7 8 7 7 7 9 16 12 13 13 11 20 21 23 23
4 6 4 5 2 5 5 4 2 4 2 4 10 7 5 4 6 7 6 6 7 9 7 17 14 18 18 13 13 10 10 16
9 6 9 6 5 4 2 2 5 6 4 5 10 9 6 6 5 5 5 6 7 10 9 13 13 18 22 14 12 12 9 5
4 3 1 5 11 6 5 3 3 4 10 8 11 11 8 8 9 6 6 6 6 7 11 13 11 12 16 15 7 6 9 9
6 7 5 3 8 14 2 5 4 11 14 16 13 13 9 9 11 10 8 9 8 6 10 11 13 11 11 11 9 9 10 11
6 6 9 7 14 12 6 9 11 14 9 12 11 12 9 9 10 10 9 9 7 9 9 10 10 14 15 12 10 10 10 9
1 4 3 5 7 8 5 6 16 8 9 16 15 14 14 13 12 11 9 9 7 7 12 12 11 17 21 18 18 14 9 7
1 5 4 4 6 7 8 5 9 17 20 17 16 12 7 9 11 10 7 7 7 10 14 15 13 9 13 18 19 18 17 16
3 1 5 2 5 2 5 5 11 15 15 13 13 14 6 10 11 10 7 14 18 22 22 22 21 20 23 21 20 19 18 17
2 2 3 3 2 5 10 1 2 15 18 22 19 9 6 9 14 15 22 24 23 21 21 20 19 19 20 19 18 17 14 13
1 2 4 4 7 3 6 6 5 12 20 19 6 6 8 12 11 20 24 25 23 20 20 17 14 14 19 16 16 12 11 10
2 2 4 4 5 4 4 4 5 6 6 11 15 17 15 13 10 18 22 21 20 20 17 13 11 11 14 15 11 9 9 10
5 5 6 4 5 4 5 5 3 10 8 15 16 14 12 11 12 17 24 22 20 19 17 16 13 12 15 11 10 11 11 12
4 3 3 3 3 4 4 7 8 8 9 11 11 11 11 8 13 18 23 21 18 16 15 12 12 12 10 9 10 10 11 12
2 5 1 3 4 7 5 6 7 7 8 9 13 10 11 11 16 21 23 19 17 15 12 11 9 9 8 9 11 12 12 11
5 6 5 5 2 3 9 8 8 8 5 10 12 10 19 15 23 26 24 23 19 15 14 11 8 6 6 8 11 13 13 13
4 5 5 6 5 3 7 7 9 11 13 10 16 22 21 17 25 27 28 24 21 20 16 10 4 3 4 6 11 12 13 14
Wind_Direction
339 216 131 269 143 184 79 18 41 141 142 43 66 65 71 69 67 41 47 31 102 91 122 175 188 186 187 197 203 203 203 204
296 279 209 141 188 68 6 186 210 21 69 149 111 69 69 65 54 34 34 35 47 72 95 113 172 184 191 200 205 208 205 205
359 101 202 26 56 58 119 130 165 142 3 279 114 90 96 81 76 49 36 34 35 31 97 106 144 160 153 211 198 211 213 215
258 280 251 149 127 134 134 246 99 119 133 83 112 112 96 78 76 68 50 39 48 51 65 103 100 121 150 169 151 167 208 217
349 15 11 33 358 86 146 82 182 138 179 120 125 125 125 97 72 76 83 48 55 54 52 66 87 115 114 118 107 94 58 54
164 237 284 338 347 22 112 91 153 152 140 172 145 139 143 119 111 100 80 71 54 58 65 72 90 110 134 147 160 208 276 331
69 353 7 325 350 348 330 181 151 182 156 167 149 146 142 140 136 117 101 94 79 61 74 79 90 104 120 125 141 125 181 229
41 308 1 10 5 1 12 108 70 107 78 137 141 134 136 134 130 125 123 109 100 97 86 84 92 103 98 99 121 134 129 144
53 311 157 18 333 347 346 52 140 153 167 149 146 147 149 140 136 126 120 107 109 119 106 103 100 104 100 100 96 99 107 117
228 358 128 133 290 35 64 67 100 108 139 151 151 142 127 129 138 134 129 116 107 99 87 84 73 84 96 90 83 81 74 63
108 124 291 4 45 73 22 18 135 132 138 128 120 112 82 122 116 121 119 101 95 98 87 77 71 82 96 85 77 67 58 56
111 104 200 255 315 315 95 354 357 140 141 139 140 133 167 131 120 113 101 103 96 92 84 75 73 88 83 67 62 49 35 32
111 192 280 309 322 320 111 230 149 161 154 153 143 160 142 128 118 113 114 109 103 93 84 79 75 79 70 65 54 43 33 23
85 109 263 305 5 102 217 8 112 112 125 106 120 120 128 125 123 117 116 113 110 105 97 88 83 77 66 59 45 26 20 19
158 215 232 286 110 103 123 116 67 116 119 122 126 130 132 130 131 121 121 119 115 111 98 95 86 83 81 68 38 17 15 19
68 294 180 148 83 100 110 125 138 141 138 133 137 143 140 128 126 127 128 124 118 112 105 91 90 83 74 49 24 24 25 18
255 271 39 212 183 150 120 132 129 148 150 155 145 150 142 142 140 143 138 133 131 124 118 114 104 82 52 25 17 20 21 17
221 214 161 236 283 259 161 171 163 156 136 155 156 152 146 154 152 152 149 148 145 145 147 139 123 94 47 16 10 8 8 6
209 193 203 241 228 189 214 211 177 164 155 147 163 154 158 160 160 161 157 158 155 162 161 155 142 85 36 19 0 2 359 354